Miscellaneous Local Product
Issued by NWS North Platte, NE

Home | Current Version | Previous Version | Text Only | Print | Product List | Glossary On
Versions: 1 2 3 4 5 6 7 8 9 10 11 12 13 14 15 16 17 18 19 20 21 22 23 24 25 26 27 28 29 30 31 32 33 34 35 36 37 38 39 40 41 42 43 44 45 46 47 48 49 50
000
AXUS43 KLBF 240010
MISLBF


WESTERN AND NORTH CENTRAL NEBRASKA HOURLY WEATHER ROUNDUP
NATIONAL WEATHER SERVICE NORTH PLATTE NE
700 PM CDT TUE SEP 23 2014

***STATIONS NOT REPORTING VARIABLES SUCH AS SKY/WEATHER OR
PRESSURE ARE PROVIDED BY THE NEBRASKA DEPARTMENT OF
ROADS...RAWS...AND APRS NETWORKS...AND ARE NOT UNDER
NATIONAL WEATHER SERVICE QUALITY CONTROL***

...OBSERVATIONS IN AND NEAR THE EASTERN PANHANDLE OF NEBRASKA...

CITY           SKY/WX    TMP DP  RH WIND       PRES   REMARKS
PINE RIDGE     PTCLDY    73  54  51 W5        29.96R
CHADRON        CLOUDY    73  59  61 SE3       29.95S
ALLIANCE       PTCLDY    78  48  34 N10       29.99R
SIDNEY         PTCLDY    77  45  32 NW7       30.04R
WHITECLAY        N/A     74  52  45 W5          N/A
RUSHVILLE        N/A     74  44  33 NW10        N/A
LISCO            N/A     83  37  19 W9          N/A
BIG SPRINGS      N/A     84  52  32 CALM        N/A
$$

...OBSERVATIONS IN NORTH CENTRAL NEBRASKA...

CITY           SKY/WX    TMP DP  RH WIND       PRES   REMARKS
VALENTINE      CLEAR     76  58  53 E5        29.90S
THEDFORD       CLOUDY    76  55  49 NW3       29.94F
AINSWORTH      MOCLDY    67  60  78 SE13      29.92S
O`NEILL        LGT RAIN  64  60  87 SE13G18   29.97R
ORD            LGT RAIN  66  59  78 SE13      29.95F
BROKEN BOW     MOCLDY    70  57  63 N6        29.97R
SPRINGVIEW       N/A     68  62  79 E8G21       N/A
ROSE             N/A     67  67  99 N12         N/A
NEWPORT          N/A     66  63  91 S12         N/A
COMSTOCK         N/A     72  64  74 SE10        N/A
CHAMBERS         N/A     64  58  82 E10         N/A
$$

...OBSERVATIONS IN SOUTHWEST NEBRASKA AND FAR NORTHEAST COLORADO...

CITY           SKY/WX    TMP DP  RH WIND       PRES   REMARKS
WRAY           FAIR      80  46  30 W6        30.01S
HOLYOKE        FAIR      81  46  30 W7        30.00S
IMPERIAL       PTCLDY    82  44  26 W9        29.96S
OGALLALA       CLEAR     81  50  33 N6        29.95S
NORTH PLATTE   MOCLDY    76  59  55 S8        29.92R
MCCOOK         PTCLDY    78  58  49 SE5       29.94S
LEXINGTON      CLEAR     75  62  62 SE14      29.95R
PAXTON           N/A     85  53  32 CALM        N/A
SUTHERLAND       N/A     87  45  22 W3          N/A
BRADY            N/A     80  61  51 CALM        N/A
GOTHENBURG       N/A     79  58  47 S10         N/A
CALLAWAY         N/A     77  64  63 S20         N/A
$$

...SOME WEATHER OBSERVATIONS FROM AROUND THE REGION...

CITY           SKY/WX    TMP DP  RH WIND       PRES   REMARKS
DENVER         CLOUDY    77  42  28 CALM      30.13R
LARAMIE        MOSUNNY   66  39  37 W15G23    30.24R
CHEYENNE       MOCLDY    72  38  29 NW13G24   30.16S
SCOTTSBLUFF    MOCLDY    80  46  30 N16G22    30.01R
RAPID CITY     CLEAR     78  54  43 E3        29.93R
PIERRE         PTCLDY    67  57  70 E16       29.88S
WINNER         FAIR      69  59  70 SE17      29.89S
SIOUX FALLS    CLOUDY    62  55  77 S14       30.03S
OMAHA          CLOUDY    66  53  63 S21       30.09F
GRAND ISLAND   CLEAR     67  57  70 S14       30.01F
KANSAS CITY    MOCLDY    68  54  60 SE9       30.15R
WICHITA        MOCLDY    75  51  43 SE16      30.05S
LIBERAL        MOCLDY    88  57  35 S23G29    29.96R
GOODLAND       CLOUDY    75  57  53 SW6       30.03F
$$



USA.gov is the U.S. government's official web portal to all federal, state and local government web resources and services.